Location: Unspecified
(47.1121°N, 116.3927°W)
Time: 00:55:20
(UTC-07:00)

Envisat - Visible Passes

Search period start: 16 October 2019 00:00
Search period end: 26 October 2019 00:00
Orbit: 764 x 766 km, 98.1° (Epoch: 15 October)

Date Brightness Start Highest point End Pass type
(mag) Time Alt. Az. Time Alt. Az. Time Alt. Az.
16 Oct 5.0 19:41:31 10° SSW 19:45:55 29° W 19:50:21 10° NW visible
17 Oct 6.7 06:10:39 10° ENE 06:11:33 10° E 06:12:26 10° E visible
17 Oct 3.6 19:03:56 10° S 19:08:57 61° W 19:14:00 10° NNW visible
18 Oct 3.0 18:27:09 10° SSE 18:32:11 66° ENE 18:37:14 10° N visible
18 Oct 5.8 20:08:18 10° SW 20:11:41 18° W 20:15:05 10° NW visible
19 Oct 6.1 06:33:57 10° NE 06:37:25 18° E 06:40:53 10° SE visible
19 Oct 4.6 19:29:55 10° SSW 19:34:35 36° W 19:39:16 10° NNW visible
20 Oct 3.2 18:52:36 10° S 18:57:40 76° WSW 19:02:46 10° NNW visible
21 Oct 3.1 18:16:02 10° SE 18:20:58 53° ENE 18:25:55 10° N visible
21 Oct 5.5 19:56:25 10° SW 20:00:18 22° W 20:04:13 10° NW visible
22 Oct 6.2 06:23:13 10° NE 06:26:01 15° E 06:28:48 10° ESE visible
22 Oct 4.2 19:18:24 10° S 19:23:14 45° W 19:28:08 10° NNW visible
23 Oct 3.0 18:41:19 10° SSE 18:46:24 88° ENE 18:51:31 10° NNW visible
23 Oct 6.1 20:23:51 10° WSW 20:26:07 13° W 20:28:25 10° WNW visible
24 Oct 5.8 06:47:41 10° NE 06:51:50 24° E 06:55:56 10° SSE visible
24 Oct 3.3 18:04:58 10° SE 18:09:45 43° ENE 18:14:33 10° N visible
24 Oct 5.1 19:44:39 10° SSW 19:48:55 27° W 19:53:13 10° NW visible
25 Oct 6.5 06:12:54 10° ENE 06:14:36 12° E 06:16:17 10° ESE visible
25 Oct 3.7 19:06:58 10° S 19:11:56 56° W 19:16:57 10° NNW visible
